Weather History for Niagara Falls, NY

Change the Weather History Date:

Thursday, November 15, 2012

  Actual Average Record
Temperature  
Mean Temperature 36 °F -  
Max Temperature 46 °F 45 °F 66 °F (1989)
Min Temperature 26 °F 31 °F 17 °F (1996)
Degree Days  
Heating Degree Days 29    
Moisture  
Dew Point 26 °F    
Average Humidity 69    
Maximum Humidity 86    
Minimum Humidity 44    
Precipitation  
Precipitation 0.00 in - - ()
Sea Level Pressure  
Sea Level Pressure 30.41 in    
Wind  
Wind Speed 2 mph (ENE)    
Max Wind Speed 9 mph    
Max Gust Speed -    
Visibility 10 miles    
Events      
Averages and records for this station are not official NWS values.
T = Trace of Precipitation, MM = Missing Value Source: NWS Daily Summary

Daily Weather History Graph

Daily Weather History Graph

Search for Another Location

Airport:

Trip Planner

Search our weather history database for the weather conditions in past years. The results will help you decide how hot, cold, wet, or windy it might be!

Date:

Astronomy

Nov. 15, 2012 Rise Set
Actual Time 7:09 AM EST 4:51 PM EST
Civil Twilight 6:38 AM EST 5:22 PM EST
Nautical Twilight 6:03 AM EST 5:56 PM EST
Astronomical Twilight 5:30 AM EST 6:30 PM EST
Moon 9:04 AM EST (11/15) 6:39 PM EST (11/15)
Length of Visible Light 10h 43m
Length of Day
9h 42m
Waxing Crescent, 5% of the Moon is Illuminated
Nov 15
Waxing Crescent
Nov 20
First Quarter
Nov 28
Full
Dec 6
Last Quarter
Dec 13
New

Hourly Weather History & Observations

Time (EST) Temp. Windchill Dew Point Humidity Pressure Visibility Wind Dir Wind Speed Gust Speed Precip Events Conditions
12:53 AM 30.9 °F 27.5 °F 25.0 °F 79% 30.50 in 10.0 mi East 3.5 mph - N/A   Clear
1:53 AM 28.9 °F - 25.0 °F 85% 30.50 in 10.0 mi Calm Calm - N/A   Clear
2:53 AM 30.0 °F - 25.0 °F 82% 30.48 in 10.0 mi Calm Calm - N/A   Clear
3:53 AM 28.9 °F - 25.0 °F 85% 30.47 in 10.0 mi Calm Calm - N/A   Clear
4:53 AM 28.9 °F 25.2 °F 24.1 °F 82% 30.47 in 10.0 mi East 3.5 mph - N/A   Clear
5:53 AM 28.0 °F - 23.0 °F 81% 30.46 in 10.0 mi Calm Calm - N/A   Clear
6:53 AM 27.0 °F 23.0 °F 23.0 °F 85% 30.46 in 10.0 mi ENE 3.5 mph - N/A   Clear
7:02 AM 26.6 °F 22.6 °F 23.0 °F 86% 30.41 in 10.0 mi East 3.5 mph - N/A   Mostly Cloudy
7:53 AM 28.0 °F - 24.1 °F 85% 30.45 in 10.0 mi Calm Calm - N/A   Scattered Clouds
8:53 AM 33.1 °F 30.0 °F 27.0 °F 78% 30.45 in 10.0 mi East 3.5 mph - N/A   Scattered Clouds
9:53 AM 37.9 °F 35.5 °F 26.1 °F 62% 30.44 in 10.0 mi ESE 3.5 mph - N/A   Scattered Clouds
10:53 AM 42.1 °F - 25.0 °F 51% 30.43 in 10.0 mi Calm Calm - N/A   Scattered Clouds
11:53 AM 45.0 °F - 26.1 °F 48% 30.40 in 10.0 mi Calm Calm - N/A   Scattered Clouds
12:53 PM 45.0 °F - 26.1 °F 48% 30.38 in 10.0 mi Calm Calm - N/A   Scattered Clouds
1:53 PM 46.9 °F - 26.1 °F 44% 30.37 in 10.0 mi NE 4.6 mph - N/A   Scattered Clouds
2:46 PM 44.6 °F 43.1 °F 26.6 °F 49% 30.32 in 10.0 mi NNW 3.5 mph - N/A   Scattered Clouds
2:53 PM 46.0 °F 43.9 °F 26.1 °F 46% 30.35 in 10.0 mi NW 4.6 mph - N/A   Scattered Clouds
3:53 PM 45.0 °F 40.1 °F 27.0 °F 49% 30.36 in 10.0 mi North 9.2 mph - N/A   Scattered Clouds
4:53 PM 39.0 °F 34.0 °F 27.0 °F 62% 30.37 in 10.0 mi NE 6.9 mph - N/A   Scattered Clouds
5:53 PM 37.0 °F 32.4 °F 26.1 °F 65% 30.36 in 10.0 mi ENE 5.8 mph - N/A   Scattered Clouds
6:53 PM 37.0 °F 32.4 °F 26.1 °F 65% 30.37 in 10.0 mi ENE 5.8 mph - N/A   Scattered Clouds
7:53 PM 35.1 °F 32.2 °F 27.0 °F 72% 30.38 in 10.0 mi ENE 3.5 mph - N/A   Partly Cloudy
8:53 PM 34.0 °F - 27.0 °F 75% 30.38 in 10.0 mi Calm Calm - N/A   Scattered Clouds
9:53 PM 34.0 °F - 27.0 °F 75% 30.38 in 10.0 mi Calm Calm - N/A   Mostly Cloudy
10:53 PM 33.1 °F - 27.0 °F 78% 30.37 in 10.0 mi Calm Calm - N/A   Mostly Cloudy
11:53 PM 32.0 °F - 27.0 °F 82% 30.37 in 10.0 mi Calm Calm - N/A   Clear